Content
SEND FEEDBACK

Daily
Averages
Monthly
Summary
United States of America

CHADRON, NEBRASKA


Home > North America > United States > Nebraska
Elevation: 3295 feet     Latitude: 42 50N     Longitude: 103 06W

WEATHER
 
SELECT A DAY
Number of Records: 172,704;   Date Range: 1/1/95 - 10/21/14
 
SHARE

PRINT THIS DATA

[ ← Previous Day ]
WEATHER ALMANAC - FEBRUARY 13, 2013
[ Next Day → ]
[ °C ]   °F
Weather ElementAverageHighLow
Temperature35.1 °F46.9 °F (12:53 pm)24.1 °F (2:53 am)
Dewpoint24.4 °F34 °F (3:53 pm)16 °F (2:53 am)
Humidity66.5 %85 % (7:53 pm)39 % (12:53 pm)
Barometer29.97 in30.05 in (9:53 pm)29.87 in (1:53 pm)
Wind Speed14.6 mph25.3 mph (5:53 pm)
Wind Gust32.2 mph (5:53 pm)
Weather ElementAverage
Visibility10 mi
Wind DirectionWNW (276.4 °)

Weather ElementTotal
Precipitation---
Heating Degree Days29.5 (Base 65)
Averaged from 22 records on February 13, 2013
WEATHER CONDITIONS BREAKOUT
WIND DIRECTION BREAKOUT
WEATHER BY HOUR - FEBRUARY 13, 2013
[ °C ]   °F
Local TimeTemperatureDewpointHumidityBarometerVisibilityWind DirectionWind SpeedGust SpeedPrecipitationEventsConditions
1:53 AM30.0 °F17.1 °F59 %30.00 in10.0 miWNW (290°)16.1 mphScattered Clouds
2:53 AM24.1 °F16.0 °F71 %29.99 in10.0 miSSW (210°)6.9 mphClear
3:53 AM26.1 °F17.1 °F69 %29.97 in10.0 miSSW (210°)6.9 mphClear
5:53 AM24.1 °F16.0 °F71 %29.98 in10.0 miWSW (240°)10.4 mphClear
6:53 AM24.1 °F16.0 °F71 %29.98 in10.0 miWSW (250°)6.9 mphClear
7:53 AM28.9 °F19.0 °F67 %29.97 in10.0 miWSW (250°)5.8 mphPartly Cloudy
8:53 AM30.9 °F19.9 °F64 %29.97 in10.0 miWSW (250°)8.1 mphOvercast
9:53 AM36.0 °F24.1 °F62 %29.95 in10.0 miWest (270°)12.7 mphOvercast
10:53 AM39.9 °F24.1 °F53 %29.94 in10.0 miWest (280°)16.1 mphOvercast
11:53 AM46.0 °F24.1 °F42 %29.89 in10.0 miWNW (300°)18.4 mph23.0 mphClear
12:53 PM46.9 °F23.0 °F39 %29.88 in10.0 miNNW (330°)17.3 mph29.9 mphOvercast
1:53 PM46.0 °F26.1 °F46 %29.87 in10.0 miNW (310°)18.4 mph31.1 mphOvercast
2:53 PM45.0 °F28.9 °F53 %29.88 in10.0 miWest (280°)15.0 mphMostly Cloudy
3:53 PM43.0 °F34.0 °F71 %29.92 in10.0 miWest (280°)13.8 mph0.00 inPartly Cloudy
4:53 PM39.9 °F30.9 °F70 %29.94 in10.0 miWNW (290°)15.0 mphMostly Cloudy
5:53 PM37.9 °F28.9 °F70 %29.98 in10.0 miWNW (300°)25.3 mph32.2 mphOvercast
6:53 PM35.1 °F30.0 °F82 %30.00 in10.0 miWest (280°)21.9 mphMostly Cloudy
7:53 PM34.0 °F30.0 °F85 %30.03 in10.0 miWest (280°)20.7 mphScattered Clouds
8:53 PM34.0 °F28.0 °F79 %30.04 in10.0 miWNW (290°)15.0 mphPartly Cloudy
9:53 PM34.0 °F28.0 °F79 %30.05 in10.0 miWNW (290°)18.4 mphClear
10:53 PM34.0 °F28.0 °F79 %30.04 in10.0 miWNW (300°)15.0 mphClear
11:53 PM32.0 °F27.0 °F82 %30.04 in10.0 miWNW (300°)16.1 mphClear
Hourly data recorded from KCDR, located miles away from Chadron, Nebraska







STORIES FROM OUR PARTNERS